Regional Weather Roundup
Issued by NWS Goodland, KS

Home | Current Version | Previous Version | Graphics & Text | Print | Product List | Glossary Off
Versions: 1 2 3 4 5 6 7 8 9 10 11 12 13 14 15 16 17 18 19 20 21 22 23 24 25 26 27 28 29 30 31 32 33 34 35 36 37 38 39 40 41 42 43 44 45 46 47 48 49 50

285
ASUS43 KGLD 170859
RWRGLD

GOODLAND FORECAST AREA HOURLY WEATHER ROUNDUP
NATIONAL WEATHER SERVICE GOODLAND KS
300 AM MDT TUE OCT 17 2017

...OFFICIAL OBSERVATIONS...

CITY           SKY/WX    TMP DP  RH WIND       PRES   REMARKS
GOODLAND KS    CLOUDY    42  29  59 W8        30.16S
HILL CITY KS   PTCLDY    47  38  71 W6        30.11S
IMPERIAL NEB   CLOUDY    42  29  59 W9        30.16R
MCCOOK NEB     CLEAR     42  35  76 W10       30.12R
AKRON CO       CLOUDY    42  22  44 W13       30.22S
BURLINGTON CO  CLOUDY    38  28  67 W7        30.20F
LIMON CO       CLOUDY    32  22  66 NW6       30.26F
$$

...UNOFFICIAL OBSERVATIONS...

CITY           SKY/WX    TMP DP  RH WIND       PRES   REMARKS
NORTON KS      CLEAR     39  32  75 SW6       30.09S
TRENTON NEB      N/A     42  32  68 NW6         N/A
YUMA CO        FAIR      34  27  75 W10       30.20S
$$




USA.gov is the U.S. government's official web portal to all federal, state and local government web resources and services.